Theta_e
309 308 310 310 308 308 309 309 309 309 309 310 310 309 309 309 308 302 295 301 309 312 312 311 307 307 307 305 305 303 292 290 291 292 295 300 299 304 305 300 302 305 304 307 313
308 309 308 307 307 308 309 308 309 309 309 309 309 309 308 308 300 295 305 309 309 309 301 304 302 304 300 299 301 298 290 291 296 297 296 299 300 300 300 299 298 302 306 307 313
307 307 308 307 307 308 308 308 308 308 308 308 308 308 307 305 293 295 311 311 307 305 301 300 301 300 296 299 296 297 292 294 295 297 298 298 299 301 299 297 300 301 304 306 310
307 306 307 306 306 307 307 308 307 307 308 308 307 307 306 300 282 298 306 306 304 302 298 297 294 291 292 292 297 291 295 295 297 298 297 296 299 297 298 299 303 304 306 306 308
307 307 306 306 307 306 306 307 307 307 307 307 306 306 301 291 291 300 303 302 299 297 293 292 290 289 285 290 293 292 294 295 296 295 296 297 296 295 297 301 303 304 303 304 308
308 307 306 306 306 306 306 306 307 306 306 305 306 305 295 285 298 299 298 297 298 297 294 294 291 292 288 287 287 291 292 294 296 295 295 293 294 296 298 301 300 301 302 303 304
306 305 306 306 306 306 306 306 306 305 304 304 304 298 290 288 298 297 299 299 297 297 292 295 294 289 288 285 289 288 285 290 292 294 294 295 290 292 297 299 298 300 301 301 303
306 304 305 305 306 306 306 306 305 304 303 302 301 295 286 296 298 297 296 294 295 295 294 294 293 290 287 289 286 283 283 279 287 291 293 293 285 293 297 296 296 298 300 301 303
305 304 304 305 305 305 305 305 303 302 300 300 294 291 284 296 291 295 295 291 293 293 293 293 292 286 286 280 278 281 275 277 281 289 289 290 286 293 297 296 295 297 299 300 301
304 305 304 304 304 304 304 302 302 298 296 295 293 287 288 285 291 293 295 294 289 289 288 288 286 281 281 278 270 274 276 278 278 284 286 286 286 290 294 295 295 296 298 299 300
304 304 304 304 304 304 301 297 289 288 289 284 285 285 286 291 293 290 293 290 289 286 280 284 279 276 279 280 279 278 276 276 279 284 283 283 283 288 292 294 294 295 296 298 299
304 303 303 304 304 303 298 289 289 290 281 288 287 287 289 291 284 287 291 284 283 278 282 280 276 280 282 280 278 277 275 274 278 282 281 281 282 286 288 290 293 294 296 297 298
303 303 303 303 303 299 294 291 297 295 281 283 286 285 286 288 282 283 287 285 281 279 279 275 278 281 280 278 276 276 274 275 275 279 281 279 278 281 287 290 292 293 296 297 297
302 302 302 303 297 295 291 296 297 295 276 277 280 284 285 286 281 288 289 285 281 277 278 278 282 279 278 277 278 273 279 277 276 275 271 280 270 278 282 286 289 291 294 295 297
302 302 302 302 296 292 293 297 296 291 266 278 280 289 286 281 283 284 290 286 279 278 279 277 278 277 276 277 280 276 280 277 277 274 274 275 272 276 282 281 286 291 293 295 298
301 302 302 297 296 295 297 297 290 275 266 274 280 279 279 281 282 284 284 288 286 280 281 280 284 282 279 280 281 282 278 277 277 275 268 273 273 273 278 282 286 290 293 295 297
301 301 299 296 290 297 297 290 276 268 277 273 275 278 277 277 278 280 279 279 277 273 273 278 278 282 283 278 282 279 274 267 267 267 267 276 273 275 281 284 286 291 292 295 298
301 301 297 295 298 298 293 282 268 272 272 278 277 277 274 277 277 278 277 275 280 278 274 271 269 278 281 278 275 275 275 269 263 265 269 276 270 276 284 286 291 289 293 295 296
300 297 295 294 297 296 286 273 270 273 276 275 276 272 273 276 276 276 276 276 279 280 272 270 270 279 281 282 279 277 274 279 272 272 269 273 277 282 284 284 286 287 289 293 292
295 292 292 295 295 291 281 273 274 278 278 277 271 273 269 272 273 273 274 279 278 280 281 275 269 277 280 282 282 279 281 273 274 265 264 271 273 271 275 276 279 281 284 286 288
293 286 291 295 292 286 274 274 276 280 280 275 273 272 273 272 273 272 273 278 280 278 280 277 274 273 278 276 274 276 273 274 276 273 268 267 269 275 274 276 277 279 281 281 282
290 281 291 293 281 280 276 277 279 278 281 278 278 276 273 274 272 272 273 276 281 279 274 278 274 269 272 279 281 278 275 274 270 270 274 272 269 276 276 276 277 277 279 281 282
285 284 291 291 276 276 278 277 278 277 277 276 275 277 277 273 270 274 275 279 280 278 276 277 273 268 271 276 280 274 274 273 273 274 272 269 269 277 276 275 276 276 277 278 279
286 279 285 285 283 277 275 274 274 279 277 278 277 278 275 273 275 272 274 277 280 279 282 281 275 271 266 269 274 271 271 272 274 272 273 272 271 271 273 273 274 275 277 278 278
286 281 282 277 279 279 278 275 273 273 278 278 275 275 274 271 272 271 275 277 279 280 279 277 271 272 273 273 274 272 271 270 268 270 269 269 268 270 273 273 274 275 276 276 276
284 282 280 280 280 278 278 275 274 275 276 274 274 276 276 272 273 271 274 275 274 278 277 278 271 272 269 275 275 272 272 271 269 268 270 272 270 274 276 276 274 274 275 274 274
290 288 284 281 279 276 276 276 275 277 278 279 278 277 274 276 280 280 280 279 278 275 275 275 273 271 268 273 273 270 270 271 270 270 269 267 270 273 273 274 273 273 274 274 274
Wind_Speed
20 19 20 20 20 21 20 21 21 22 22 23 24 24 25 26 27 22 22 5 7 12 13 16 15 15 15 19 23 19 19 22 35 37 31 23 29 21 16 21 22 24 22 18 4
19 20 19 21 20 20 21 21 22 22 22 23 24 24 24 25 24 25 11 6 14 12 13 10 10 12 15 17 17 22 18 34 35 31 29 28 28 23 21 21 23 25 18 16 7
19 20 19 21 22 21 23 22 23 24 24 25 25 25 25 24 19 6 14 5 16 10 11 14 14 15 20 19 25 28 26 31 34 36 31 31 29 21 26 24 23 21 24 21 14
21 21 22 23 23 24 24 25 25 26 27 28 27 26 25 16 12 7 4 17 9 10 13 13 15 20 23 25 26 29 31 32 35 32 29 28 26 29 27 28 22 24 19 13 19
20 21 21 23 24 25 25 26 27 28 28 28 28 25 21 12 17 16 12 11 15 17 17 16 18 18 27 24 28 28 32 34 33 31 28 28 31 29 31 30 24 22 5 8 13
23 22 22 23 24 25 26 27 27 28 29 29 26 21 15 22 5 9 11 17 14 15 15 15 14 16 19 25 27 29 32 32 30 31 28 30 31 30 37 27 25 23 26 18 16
22 22 23 23 24 25 26 28 29 28 30 27 21 13 18 21 18 13 12 9 8 8 11 11 11 14 15 24 25 27 31 31 28 25 29 29 37 39 30 29 30 29 26 22 22
21 22 23 25 25 26 28 30 29 28 23 18 19 16 11 8 10 12 9 19 14 14 17 20 19 19 14 18 26 27 24 20 30 30 29 26 33 33 30 31 30 30 26 23 26
21 22 23 25 26 27 30 27 30 21 12 23 10 5 9 10 9 14 13 13 16 19 19 16 15 19 19 19 19 20 24 32 31 27 31 34 33 31 29 27 28 30 30 25 24
23 22 23 25 26 28 27 28 23 5 7 12 5 13 4 17 19 15 13 10 16 20 19 17 15 19 19 17 17 23 24 28 32 29 32 32 34 31 32 31 30 28 22 27 26
22 23 24 25 26 29 17 14 12 1 22 7 22 17 23 15 18 12 16 15 20 17 17 17 13 17 23 25 28 27 27 33 29 28 28 32 29 28 24 26 28 25 27 24 24
22 24 25 26 27 21 13 8 9 9 13 19 7 8 11 8 21 21 21 15 18 23 21 19 21 26 24 23 23 21 23 26 27 31 27 28 28 25 29 29 26 27 23 24 24
23 24 24 24 26 9 13 5 7 12 8 13 7 10 13 11 30 24 23 16 17 22 20 21 28 24 25 23 25 24 25 25 27 27 28 28 31 29 28 28 29 26 24 25 23
24 24 24 27 12 12 7 7 9 6 5 7 9 2 12 25 12 24 14 12 12 15 15 16 20 17 21 26 24 25 25 25 26 23 16 20 21 28 27 28 29 27 25 23 24
23 23 24 22 10 7 9 10 9 4 7 15 8 7 22 15 23 12 10 15 19 25 13 17 20 20 21 24 22 21 21 20 22 20 21 21 15 18 24 28 24 27 27 25 24
24 24 25 10 6 6 11 11 4 5 4 14 12 25 24 20 18 10 21 14 14 14 16 23 18 16 15 19 17 17 20 17 17 15 17 19 18 18 22 25 19 26 27 25 25
22 24 14 6 6 10 10 7 5 3 14 9 27 28 25 19 15 12 21 16 10 9 18 17 11 4 7 10 11 17 11 9 10 12 15 16 17 20 15 27 28 24 24 22 21
22 23 5 3 7 9 9 4 4 4 13 17 18 24 10 19 14 18 20 15 10 11 16 14 19 14 9 20 13 22 8 8 10 12 15 16 8 18 24 28 9 8 11 12 13
21 6 3 4 6 6 5 3 3 9 11 14 20 9 11 14 12 15 19 13 7 10 10 14 15 28 14 4 5 3 7 16 13 18 13 12 20 23 16 24 17 10 8 11 12
8 6 2 5 6 4 3 4 4 9 13 9 8 5 13 15 14 17 12 8 16 10 14 8 20 9 10 15 1 11 11 6 6 5 13 12 9 9 14 11 9 10 11 10 9
5 6 4 4 3 2 3 5 8 10 12 4 7 9 11 18 14 16 9 17 6 20 18 12 6 15 17 12 17 7 10 6 7 5 8 10 5 7 10 11 9 10 9 7 7
3 5 3 2 3 1 5 9 9 10 7 10 8 11 13 15 14 12 11 16 20 23 19 6 8 13 21 18 1 6 13 12 8 3 6 2 3 5 6 8 9 8 8 10 9
4 5 3 3 4 4 7 8 10 7 6 3 7 8 7 10 12 12 14 12 22 10 9 7 5 13 11 2 4 11 18 13 12 9 11 6 5 7 8 9 11 10 9 9 10
3 5 3 2 1 4 8 8 4 6 13 8 12 14 12 11 14 16 26 13 21 24 23 9 7 9 12 17 17 11 20 22 4 4 9 3 6 13 13 14 14 12 12 11 10
3 4 2 4 6 7 8 7 13 9 6 8 6 11 14 11 21 17 18 29 16 8 6 4 9 12 15 18 17 5 16 20 16 15 8 8 8 14 11 12 14 13 13 14 15
4 4 4 6 7 10 9 6 11 12 7 11 15 18 16 20 19 32 23 24 13 7 7 5 7 8 14 6 6 5 11 12 12 13 11 9 8 14 8 8 13 14 15 15 15
4 1 3 5 7 6 9 8 8 11 12 13 15 18 20 21 18 23 23 24 19 18 14 4 5 6 5 7 9 3 9 5 3 10 8 9 7 11 7 8 15 14 14 15 15
Wind_Direction
359 355 355 356 349 344 341 343 341 339 337 333 330 330 330 329 319 306 294 313 339 342 299 267 265 248 246 240 236 236 246 240 242 244 242 244 252 245 241 248 258 245 230 243 27
359 357 354 347 346 337 339 339 338 335 332 327 327 328 329 330 311 292 113 102 358 338 326 311 260 256 232 237 231 225 228 237 241 248 255 257 256 250 251 229 251 250 246 243 219
353 349 350 349 343 342 339 339 335 332 330 326 326 328 331 324 312 25 164 339 352 324 317 300 281 278 260 244 233 230 235 248 250 256 261 265 261 260 247 243 241 234 238 226 223
352 351 354 348 341 338 338 337 334 331 329 326 326 328 328 317 299 78 318 338 346 315 310 294 281 268 259 251 243 246 242 246 254 266 271 258 261 260 251 253 251 271 271 260 205
344 347 349 344 344 339 336 335 331 330 324 321 321 324 321 298 272 306 350 327 317 306 296 292 278 274 259 261 255 249 242 248 256 262 262 266 265 247 254 251 249 251 202 261 219
354 354 346 343 342 339 335 329 326 323 321 317 318 320 304 288 31 342 306 312 310 305 292 279 271 286 292 278 270 264 270 259 254 254 260 256 254 258 245 254 258 254 252 242 247
345 347 344 337 336 334 329 325 322 320 317 314 320 317 301 273 312 320 309 293 307 308 297 294 290 277 287 288 262 266 268 264 259 265 261 246 250 242 251 249 249 248 250 252 249
344 345 339 338 339 333 330 324 318 317 310 316 313 305 270 294 311 292 320 301 289 281 273 275 269 262 270 290 282 276 268 268 251 249 253 259 248 246 246 249 250 251 245 240 247
347 341 337 337 337 333 328 323 313 314 305 310 306 317 291 320 314 319 329 302 307 292 288 273 271 258 256 256 274 248 253 252 253 245 238 233 247 252 256 260 247 235 240 235 242
345 342 338 337 335 332 331 321 305 287 350 297 169 309 247 320 324 308 302 290 304 298 294 262 248 252 246 253 252 261 260 243 250 247 259 245 243 247 245 247 247 258 245 226 228
340 341 337 338 333 333 333 321 360 303 348 305 295 278 277 302 305 309 295 285 285 283 271 273 285 256 245 244 250 250 253 269 271 274 252 253 266 264 249 246 241 247 240 245 232
342 341 337 334 332 335 340 11 36 319 311 309 312 281 287 330 306 314 317 309 303 288 292 288 266 260 264 273 276 275 281 277 273 266 266 274 273 272 255 260 249 241 247 242 242
338 337 336 336 326 314 335 16 342 325 291 309 297 310 341 313 317 305 334 315 294 285 282 272 269 284 285 266 259 255 254 262 267 269 265 266 265 258 262 265 248 257 247 250 253
338 336 338 338 309 341 354 342 321 315 281 336 333 66 321 329 302 323 310 327 287 288 294 279 277 277 264 256 261 263 262 263 262 267 265 255 261 250 252 255 242 234 241 239 246
334 336 336 328 313 320 341 324 320 237 304 347 330 329 325 326 303 323 302 321 272 285 284 264 300 289 278 272 269 267 259 262 264 264 270 258 261 265 251 252 245 236 227 231 238
332 334 336 338 306 338 319 316 264 242 299 328 320 327 329 326 327 305 327 322 281 286 272 273 266 262 265 281 273 269 259 260 262 257 256 245 235 250 234 242 245 229 225 226 231
333 330 337 312 327 325 316 298 266 350 342 306 329 332 325 326 332 335 334 330 334 301 339 330 334 260 253 287 257 239 223 237 236 218 247 240 226 238 258 226 242 254 215 227 228
330 322 355 356 331 327 312 276 325 0 309 315 323 317 314 341 331 333 329 328 351 352 313 341 328 333 320 297 289 285 249 237 270 250 272 264 224 242 226 246 209 301 316 238 231
325 327 267 1 342 320 314 336 329 331 325 320 319 318 308 328 333 320 326 296 320 360 350 320 297 312 306 359 267 352 226 251 247 255 276 273 272 246 258 221 251 321 301 253 66
323 312 270 352 336 307 278 307 273 301 306 309 296 319 308 324 321 339 309 306 323 336 360 305 298 309 313 316 153 292 318 278 200 259 257 249 270 9 8 11 3 11 19 15 23
314 314 81 340 289 258 322 278 300 294 305 270 284 293 289 312 320 314 273 297 331 333 331 294 263 291 306 317 315 302 340 326 269 240 277 280 78 4 356 359 360 26 29 22 17
320 294 85 293 269 160 275 310 291 285 291 283 282 270 271 304 300 302 279 301 321 329 312 320 290 285 293 299 264 331 320 316 290 238 244 255 77 28 11 12 0 10 21 15 22
286 273 131 263 267 300 293 263 273 279 282 267 267 257 280 300 305 279 297 309 312 311 306 316 260 306 312 166 345 335 344 320 265 254 265 310 88 41 40 22 14 10 18 20 15
275 292 231 227 333 292 313 287 263 256 281 254 268 285 280 282 270 281 290 299 309 299 298 311 263 265 278 291 312 324 353 351 223 284 268 315 63 10 13 11 7 11 15 20 15
194 236 317 267 240 250 288 268 283 293 213 268 269 251 293 299 300 270 300 310 319 328 300 272 276 293 285 282 285 11 10 4 16 357 21 55 50 6 9 5 1 3 13 17 16
246 236 167 267 257 256 260 255 265 278 246 265 278 284 286 289 283 296 308 303 304 291 318 262 281 322 297 305 269 1 15 13 15 358 12 20 60 359 358 24 15 13 13 13 11
207 258 233 251 217 237 244 240 267 291 283 264 286 301 293 286 291 293 284 278 267 278 288 276 300 308 287 318 302 168 1 23 47 18 334 20 344 334 359 36 24 11 12 10 7